Flag for U.S.A. Weather past 2 weeks in Provo, Utah, U.S.A.

Now
75 °F

Scattered clouds.


Feels Like: 78 °F
Forecast: 60 / 85 °F
Wind: 6 mph from Southwest

Location: Provo Municipal

Current Time: Aug 1, 2014 at 11:38:51 AM

Latest Report: Aug 1, 2014 at 10:55 AM


Visibility: 15 mi

Pressure: 30.22 "Hg

Humidity: 54%

Dew point: 57 °F

Location of ProvoLocation

Historic Weather in Provo — Graph

°F

Provo temperature yesterday

Maximum temperature yesterday: 82 °F (at 3:55 PM)
Minimum temperature yesterday: 59 °F (at 6:35 AM)
Average temperature yesterday: 69 °F

Past Weeks' High & Low Weather Summary

 TemperatureHumidityPressure
High100 °F (Jul 23, 4:47 PM)88% (Jul 29, 4:35 AM)30.27 "Hg (Jul 29, 4:35 AM)
Low59 °F (Jul 31, 6:35 AM)11% (Jul 22, 5:54 PM)29.95 "Hg (Jul 17, 8:54 PM)
Average73 °F48%30.12 "Hg
* Reported Jul 17 9:51 AM — Aug 1 9:52 AM, Provo, Weather by CustomWeather, © 2014

Note: Actual official high and low records may vary slightly from our data, if they occured in-between our weather recording intervals... More about our weather records

Advertising

Provo weather history for previous 24 hours

 ConditionsComfort  
Time TempWeatherWind HumidityBarometerVisibility
9:52 AM
Aug 1
73 °FScattered clouds.7 mph47%30.22 "Hg15 mi
8:55 AM73 °FScattered clouds.No wind47%30.22 "Hg15 mi
7:55 AM64 °FScattered clouds.No wind68%30.21 "Hg15 mi
6:52 AM59 °FPassing clouds.No wind77%30.19 "Hg15 mi
6:35 AM61 °FClear.3 mph72%30.19 "Hg10 mi
6:15 AM61 °FClear.No wind77%30.19 "Hg10 mi
5:55 AM64 °FClear.3 mph68%30.18 "Hg10 mi
5:35 AM64 °FClear.5 mph68%30.18 "Hg10 mi
5:15 AM63 °FClear.No wind77%30.17 "Hg10 mi
4:55 AM63 °FClear.No wind73%30.17 "Hg10 mi
4:35 AM64 °FClear.3 mph68%30.17 "Hg10 mi
4:15 AM64 °FClear.No wind68%30.17 "Hg10 mi
3:55 AM64 °FClear.No wind68%30.17 "Hg10 mi
3:35 AM66 °FClear.No wind64%30.16 "Hg10 mi
3:15 AM64 °FClear.5 mph73%30.17 "Hg10 mi
2:55 AM64 °FClear.5 mph73%30.16 "Hg10 mi
2:35 AM66 °FClear.3 mph68%30.16 "Hg10 mi
2:15 AM66 °FClear.5 mph68%30.16 "Hg10 mi
1:55 AM68 °FClear.5 mph64%30.17 "Hg10 mi
1:35 AM66 °FClear.7 mph68%30.17 "Hg10 mi
1:15 AM64 °FClear.3 mph68%30.18 "Hg10 mi
12:55 AM68 °FClear.5 mph60%30.17 "Hg10 mi
12:35 AM66 °FClear.9 mph68%30.17 "Hg10 mi
12:15 AM66 °FClear.9 mph64%30.17 "Hg10 mi
11:55 PM
Jul 31
70 °FClear.7 mph60%30.17 "Hg10 mi
11:35 PM70 °FClear.6 mph60%30.17 "Hg10 mi
11:15 PM70 °FClear.No wind60%30.17 "Hg10 mi
10:55 PM70 °FClear.6 mph57%30.17 "Hg10 mi
10:15 PM72 °FClear.No wind53%30.16 "Hg10 mi
9:55 PM73 °FClear.No wind50%30.15 "Hg10 mi
9:35 PM72 °FSunny.3 mph53%30.15 "Hg6 mi
9:15 PM72 °FSunny.6 mph57%30.15 "Hg10 mi
8:55 PM73 °FSunny.7 mph50%30.14 "Hg10 mi
7:50 PM79 °FPartly sunny.9 mph48%30.13 "Hg15 mi
6:48 PM79 °FPartly sunny.9 mph51%30.14 "Hg15 mi
5:50 PM75 °FBroken clouds.6 mph47%30.14 "Hg15 mi
4:53 PM81 °FBroken clouds.7 mph48%30.14 "Hg15 mi
3:55 PM82 °FPassing clouds.7 mph35%30.14 "Hg15 mi
2:57 PM81 °FPassing clouds.7 mph39%30.17 "Hg15 mi
1:47 PM79 °FPassing clouds.5 mph42%30.20 "Hg15 mi
12:47 PM75 °FPassing clouds.3 mph50%30.21 "Hg15 mi
11:56 AM75 °FPassing clouds.7 mph54%30.22 "Hg15 mi
Weather by CustomWeather, © 2014

See weather overviewHow to use our weather pages